Flag for USA

Past Weather in Santa Maria, California, USA — Yesterday and Last 2 Weeks

Now
58 °F

Overcast.


Feels Like: 58 °F
Forecast: 70 / 54 °F
Wind: 3 mph from Northwest

Location: Santa Maria Public Airport

Current Time: Jul 2, 2020 at 3:38:58 am

Latest Report: Jul 2, 2020 at 2:51 am


Visibility: 7 mi

Pressure: 29.89 "Hg

Humidity: 81%

Dew Point: 52 °F

Location of Santa MariaLocation

Past Weather in Santa Maria — Graph

°F

Santa Maria Temperature Yesterday

Maximum temperature yesterday: 69 °F (at 1:51 pm)
Minimum temperature yesterday: 56 °F (at 12:28 am)
Average temperature yesterday: 60 °F

High & Low Weather Summary for the Past Weeks

 TemperatureHumidityPressure
High76 °F (Jun 17, 11:51 am)100% (Jun 18, 6:34 am)30.04 "Hg (Jun 18, 6:34 am)
Low46 °F (Jun 18, 6:03 am)42% (Jun 17, 11:51 am)29.81 "Hg (Jun 28, 6:15 pm)
Average61 °F78%29.92 "Hg
* Reported Jun 17 1:51 am — Jul 2 1:51 am, Santa Maria. Weather by CustomWeather, © 2020

Note: Actual official high and low records may vary slightly from our data, if they occured in-between our weather recording intervals... More about our weather records

Santa Maria Weather History for the Previous 24 Hours

Scroll right to see more
 ConditionsComfort  
Time TempWeatherWind HumidityBarometerVisibility
1:51 am
Thu, Jul 2
59 °FOvercast.3 mph78%29.90 "Hg8 mi
12:51 am59 °FOvercast.6 mph81%29.90 "Hg8 mi
11:51 pm
Wed, Jul 1
59 °FOvercast.3 mph81%29.91 "Hg8 mi
10:51 pm59 °FOvercast.6 mph81%29.91 "Hg8 mi
9:51 pm59 °FOvercast.6 mph81%29.91 "Hg8 mi
9:30 pm59 °FOvercast.7 mph78%29.90 "Hg8 mi
8:51 pm59 °FOvercast.8 mph78%29.90 "Hg8 mi
7:51 pm60 °FOvercast.9 mph78%29.89 "Hg7 mi
6:51 pm62 °FPartly sunny.10 mph73%29.89 "Hg7 mi
5:51 pm64 °FPartly sunny.10 mph68%29.89 "Hg10 mi
4:51 pm66 °FPartly sunny.13 mph65%29.90 "Hg10 mi
3:51 pm68 °FPartly sunny.15 mph61%29.90 "Hg10 mi
2:51 pm69 °FScattered clouds.N/A59%29.92 "Hg9 mi
1:51 pm69 °FPartly sunny.5 mph61%29.92 "Hg9 mi
12:51 pm66 °FOvercast.6 mph65%29.93 "Hg10 mi
11:51 am64 °FOvercast.3 mph70%29.93 "Hg8 mi
10:51 am61 °FOvercast.5 mph75%29.94 "Hg8 mi
9:51 am60 °FOvercast.3 mph78%29.93 "Hg9 mi
8:51 am59 °FOvercast.5 mph78%29.93 "Hg9 mi
7:51 am57 °FOvercast.No wind83%29.92 "Hg7 mi
7:39 am57 °FOvercast.3 mph83%29.91 "Hg5 mi
6:51 am56 °FFog.No wind87%29.90 "Hg4 mi
5:51 am56 °FFog.No wind87%29.90 "Hg5 mi
4:51 am56 °FLow clouds.3 mph87%29.89 "Hg7 mi
3:51 am56 °FFog.3 mph87%29.89 "Hg6 mi
Weather by CustomWeather, © 2020

See weather overview